Location: Champignolles
(47.0543°N, 4.5663°E)
Time: 04:48:21
(UTC+00:00)

N. Korean satellite - Pass Details

Date: 11 December 2021
Orbit: 447 x 491 km, 97.3° (Epoch: 25 January)

Event Time Altitude Azimuth Distance (km) Brightness Sun altitude
Rises 06:09:17 0° 355° (N) 2,462 9.9 -11.1°
Enters shadow 06:11:54 10° 332° (NNW) 1,602 8.7 -10.7°
Exits shadow 06:16:03 10° 258° (WSW) 1,609 8.7 -10.0°
Sets 06:18:36 0° 235° (SW) 2,451 9.8 -9.6°
